Tracking 22456 objects as of 7-Mar-2021
HD Live streaming from Space Station
objects crossing your sky now

DELTA 1 DEB

Track DELTA 1 DEB now!
10-day predictions


NORAD ID: 10211
Int'l Code: 1977-065AQ
Perigee: 872.2 km
Apogee: 1,930.1 km
Inclination: 29.5 °
Period: 113.7 minutes
Semi major axis: 7772 km
RCS: 0.0969 m2 (small)
Launch date: July 14, 1977
Source: United States (US)
Launch site: AIR FORCE EASTERN TEST RANGE (AFETR)

Note: This is SATELLITE DEBRIS
aabbcc
Your satellite tracking list
Your tracking list is empty




NASA's NSSDC Master Catalog

Two Line Element Set (TLE):
1 10211U 77065AQ  21065.41786998 -.00001040  00000-0 -22640-2 0  9999
2 10211  29.4745 114.7124 0680563 120.5033 246.4479 12.67039949865814
Source of the keplerian elements: AFSPC